This demonstration page uses our WeatherBlox Daily Observations layout. Learn more.

Left ArrowRight Arrow

30.21309, -93.2044

Hourly Observations for August 3, 2020

Temp ( °F °C ) Dew Point ( °F °C ) Humidity (%) Winds ( mph kmh ) Pressure ( in mb ) Visibility ( mi km ) Precip ( " mm )
12:15 am 00:15 Clear 76 24.7 71 21.5 82 82 Calm 29.97 1015 10 16 0.00 0.00
12:35 am 00:35 Clear 76 24.4 71 21.7 85 85 Calm 29.97 1015 10 16 0.00 0.00
12:55 am 00:55 Clear 76 24.3 72 22.1 88 88 Calm 29.96 1015 10 16 0.00 0.00
1:15 am 01:15 Clear 76 24.3 71 21.8 86 86 Calm 29.96 1015 10 16 0.00 0.00
1:35 am 01:35 Clear 76 24.2 72 22 88 88 Calm 29.97 1015 10 16 0.00 0.00
1:55 am 01:55 Clear 78 25.5 73 22.9 86 86 W 6 9 29.96 1015 10 16 0.00 0.00
2:15 am 02:15 Clear 76 24.5 73 22.5 89 89 WNW 3 6 29.96 1015 10 16 0.00 0.00
2:35 am 02:35 Clear 76 24.5 73 22.6 89 89 NW 5 7 29.97 1015 10 16 0.00 0.00
2:55 am 02:55 Clear 76 24.5 73 22.7 90 90 NW 5 7 29.97 1015 10 16 0.00 0.00
3:15 am 03:15 Clear 76 24.6 73 23 91 91 NW 3 6 29.96 1015 10 16 0.00 0.00
3:35 am 03:35 Clear 76 24.6 73 23 91 91 NW 3 6 29.96 1015 10 16 0.00 0.00
3:55 am 03:55 Clear 76 24.5 74 23.1 92 92 NW 3 6 29.97 1015 10 16 0.00 0.00
4:15 am 04:15 Clear 76 24.7 74 23.1 91 91 NW 5 7 29.97 1015 10 16 0.00 0.00
4:35 am 04:35 Clear 76 24.7 73 23 90 90 NW 5 7 29.97 1015 10 16 0.00 0.00
4:55 am 04:55 Clear 76 24.7 73 23 90 90 Calm 29.97 1015 10 16 0.00 0.00
5:15 am 05:15 Clear 77 24.8 73 22.9 89 89 Calm 29.97 1015 10 16 0.00 0.00
5:35 am 05:35 Clear 76 24.4 73 22.9 91 91 Calm 29.97 1015 10 16 0.00 0.00
6:00 am 06:00 Mostly Clear 75 24 73 23 94 94 Calm 29.97 1015 10 16 0.00 0.00
6:55 am 06:55 Mostly Sunny 75 24 73 23 94 94 Calm 29.99 1016 10 16 0.00 0.00
7:45 am 07:45 Mostly Sunny 79 26 73 23 84 84 WNW 7 11 30.00 1016 10 16 0.00 0.00
8:45 am 08:45 Mostly Sunny 82 28 72 22 70 70 WNW 8 13 30.01 1016 10 16 0.00 0.00
9:50 am 09:50 Mostly Sunny 84 29 72 22 66 66 WNW 10 17 30.01 1016 10 16 0.00 0.00
10:53 am 10:53 Mostly Sunny 88 31 72 22 59 59 NW 12 19 30.01 1016 10 16 0.00 0.00
11:55 am 11:55 Mostly Sunny 90 32 72 22 55 55 W 9 15 30.01 1016 10 16 0.00 0.00
12:45 pm 12:45 Mostly Cloudy 90 32 72 22 55 55 W 6 9 30.00 1016 10 16 0.00 0.00
1:45 pm 13:45 Mostly Cloudy 90 32 72 22 55 55 WNW 6 9 29.99 1016 10 16 0.00 0.00
2:51 pm 14:51 Mostly Cloudy 91 33 72 22 52 52 Calm 29.97 1015 10 16 0.00 0.00
3:50 pm 15:50 Mostly Cloudy 90 32 72 22 55 55 NNE 9 15 29.96 1015 10 16 0.00 0.00
4:50 pm 16:50 Partly Cloudy 90 32 73 23 59 59 NNE 5 7 29.94 1014 10 16 0.00 0.00
5:50 pm 17:50 Mostly Sunny 91 33 72 22 52 52 N 7 11 29.93 1014 10 16 0.00 0.00
6:50 pm 18:50 Mostly Sunny 90 32 70 21 52 52 NNW 3 6 29.92 1013 10 16 0.00 0.00
7:50 pm 19:50 Mostly Sunny 88 31 72 22 59 59 Calm 29.93 1014 10 16 0.00 0.00
8:50 pm 20:50 Mostly Clear 82 28 75 24 79 79 SSW 7 11 29.94 1014 10 16 0.00 0.00
9:50 pm 21:50 Mostly Clear 79 26 75 24 89 89 Calm 29.96 1015 10 16 0.00 0.00
10:15 pm 22:15 Clear 82 27.9 76 24.6 82 82 SW 8 13 29.97 1015 10 16 0.00 0.00
10:35 pm 22:35 Clear 82 27.9 76 24.6 82 82 SW 5 7 29.97 1015 10 16 0.00 0.00
10:55 pm 22:55 Clear 83 28.1 76 24.5 81 81 SW 5 7 29.98 1015 10 16 0.00 0.00
11:15 pm 23:15 Clear 82 27.8 76 24.5 82 82 SW 6 9 29.97 1015 10 16 0.00 0.00
11:35 pm 23:35 Clear 82 27.6 76 24.6 84 84 SW 3 6 29.98 1015 10 16 0.00 0.00
11:55 pm 23:55 Clear 82 27.6 76 24.6 84 84 SW 5 7 29.97 1015 10 16 0.00 0.00

Powered by AerisWeather